This demonstration page uses our WeatherBlox Daily Observations layout. Learn more.

Left ArrowRight Arrow

41.86663, -103.66717

Hourly Observations for January 1, 2020

Temp ( °F °C ) Dew Point ( °F °C ) Humidity (%) Winds ( mph kmh ) Pressure ( in mb ) Visibility ( mi km ) Precip ( " mm )
12:53 am 00:53 Clear 31 -0.6 20 -6.7 64 64 WNW 13 20 29.69 1005 10 16.0934 0 0
1:53 am 01:53 Clear 34 1.1 22 -5.6 61 61 WNW 15 24 29.63 1004 10 16.0934 0 0
2:53 am 02:53 Clear 36 2.2 24 -4.4 62 62 W 16 26 29.6 1003 10 16.0934 0 0
3:53 am 03:53 Clear 37 2.8 25 -3.9 62 62 W 18 30 29.57 1002 10 16.0934 0 0
4:53 am 04:53 Clear 37 2.8 27 -2.8 67 67 W 13 20 29.55 1001 10 16.0934 0 0
5:53 am 05:53 Mostly Clear 40 4.4 28 -2.2 63 63 WNW 21 33 29.53 1000 10 16.0934 0 0
6:53 am 06:53 Mostly Cloudy 41 5 28 -2.2 60 60 W 25 41 29.49 999 10 16.0934 0 0
7:53 am 07:53 Mostly Cloudy 41 5 29 -1.7 62 62 W 21 33 29.48 998 10 16.0934 0 0
8:53 am 08:53 Mostly Cloudy 43 6.1 29 -1.7 58 58 WNW 29 46 29.49 999 10 16.0934 0 0
9:53 am 09:53 Mostly Sunny 45 7.2 30 -1.1 56 56 W 23 37 29.49 999 10 16.0934 0 0
10:53 am 10:53 Sunny 43 6.1 28 -2.2 56 56 WNW 28 44 29.48 998 10 16.0934 0 0
11:53 am 11:53 Cloudy 41 5 29 -1.7 62 62 WNW 26 43 29.47 998 10 16.0934 0 0
12:53 pm 12:53 Cloudy 42 5.6 29 -1.7 60 60 W 26 43 29.44 997 10 16.0934 0 0
1:53 pm 13:53 Sunny 44 6.7 29 -1.7 55 55 WNW 23 37 29.42 996 10 16.0934 0 0
2:53 pm 14:53 Sunny 45 7.2 29 -1.7 54 54 WNW 15 24 29.41 996 10 16.0934 0 0
3:53 pm 15:53 Sunny 42 5.6 28 -2.2 58 58 WNW 18 30 29.44 997 10 16.0934 0 0
4:53 pm 16:53 Clear 39 3.9 28 -2.2 65 65 WNW 8 13 29.45 997 10 16.0934 0 0
5:53 pm 17:53 Clear 39 3.9 28 -2.2 65 65 WNW 13 20 29.43 997 10 16.0934 0 0
6:53 pm 18:53 Clear 36 2.2 28 -2.2 73 73 NW 10 17 29.43 997 10 16.0934 0 0
7:53 pm 19:53 Clear 35 1.7 28 -2.2 76 76 NW 9 15 29.44 997 10 16.0934 0 0
8:53 pm 20:53 Clear 30 -1.1 26 -3.3 85 85 WNW 8 13 29.46 998 10 16.0934 0 0
9:53 pm 21:53 Clear 30 -1.1 26 -3.3 85 85 WNW 7 11 29.47 998 10 16.0934 0 0
10:53 pm 22:53 Clear 28 -2.2 25 -3.9 88 88 N 3 6 29.5 999 10 16.0934 0 0
11:53 pm 23:53 Clear 27 -2.8 25 -3.9 92 92 N 3 6 29.52 1000 10 16.0934 0 0

Powered by AerisWeather